IRIDIUM 173

Last updated on Fri Sep 11 2026 00:03:06 GMT+0000 (Coordinated Universal Time)

1 43925U 19002D 26253.09498529 .00000158 00000+0 49209-4 0 9990 2 43925 86.3988 318.0901 0002282 94.2920 265.8537 14.34217539401122
UTC large
Height (km)
Speed (km/s)
/
Latitude / Longitude
Inclination (degrees)
Orbital Period (minutes)
Azimuth
Elevation
Range (km)
Doppler Factor

Next 0 passes for location: London (51.5072 / 0.1276)

No passes found over London.
IRIDIUM 173